1KUNS-PF (43466 NORAD) Tracking and Keplerian Element Data

This shows tracking and keplerian element data for the satellite.

Feedback or suggestion? Click here.




ElementValue
Catalog43466
Name1KUNS-PF
Epoch Orbit5308
Epoch Day106.8929469
Epoch Year2019
RAAN292.6699
Inclination51.637
Eccentricity0.0001018
Argument of Perigee214.6454
Mean Anonmoly145.4475
Mean Motion15.63923427
Decay Rate0.00018287
L11 43466U 98067NP 19106.89294690 .00018287 00000-0 19572-3 0 9990
L22 43466 51.6370 292.6699 0001018 214.6454 145.4475 15.63923427 53084

Live tracking and technical data element details for 1KUNS-PF (NORAD 43466). 1KUNS-PF can be tracked NOW for your location showing map with azimuth and elevation plus other details from your city location.

Track the satellite on the map from your city or location and see movement details for azimuth, elevation, latitude, longitude, range, height, and movement on the map or in text.







IsCatalogInMostPopularTable: catalog: 43466, numindb: 139
Update: records affected: 1



GetName: 43466 1KUNS-PF

Hit Count: updated at: Fri, 19 Apr 2019 20:13:33 GMT